Minneapolis, MN

3:47 PM CDT on September 26, 2017 (GMT -0500)
Minneapolis-Saint Paul International

Weather History for KMSP - May, 2013

Change the Weather History Date:

Sunday, May 12, 2013

  Actual Average Record
Temperature  
Mean Temperature 47 °F 58 °F  
Max Temperature 59 °F 68 °F 90 °F (1961)
Min Temperature 34 °F 48 °F 28 °F (1946)
Degree Days  
Heating Degree Days 18 8  
Month to date heating degree days 170 112  
Since 1 July heating degree days 7586 7430  
Cooling Degree Days 0 1  
Month to date cooling degree days 4 10  
Year to date cooling degree days 7 15  
Moisture  
Dew Point 20 °F    
Average Humidity 39    
Maximum Humidity 59    
Minimum Humidity 19    
Precipitation  
Precipitation 0.00 in 0.11 in 1.52 in (1906)
Month to date precipitation 0.85 1.32  
Year to date precipitation 10.30 7.54  
Snow  
Snow 0.00 in 0.00 in 0.20 in (1946)
Month to date snowfall 0.5 0.0  
Since 1 July snowfall 67.7 54.4  
Snow Depth 0.00 in    
Sea Level Pressure  
Sea Level Pressure 30.18 in    
Wind  
Wind Speed 8 mph (NW)    
Max Wind Speed 18 mph    
Max Gust Speed 26 mph    
Visibility 10 miles    
Events      
T = Trace of Precipitation, MM = Missing Value Source: NWS Daily Summary

Daily Weather History Graph

Daily Weather History Graph

Search for Another Location

Airport or City:

Trip Planner

Search our weather history database for the weather conditions in past years. The results will help you decide how hot, cold, wet, or windy it might be!

Date:

Astronomy

May. 12, 2013 Rise Set
Actual Time 5:47 AM CDT 8:31 PM CDT
Civil Twilight 5:13 AM CDT 9:05 PM CDT
Nautical Twilight 4:31 AM CDT 9:48 PM CDT
Astronomical Twilight 3:41 AM CDT 10:38 PM CDT
Moon 7:41 AM CDT (5/12) 11:00 PM CDT (5/12)
Length of Visible Light 15h 52m
Length of Day
14h 44m
Waxing Crescent, 7% of the Moon is Illuminated
May 12
Waxing Crescent
May 17
First Quarter
May 24
Full
May 31
Last Quarter
Jun 8
New

Hourly Weather History & Observations

Time (CDT) Temp. Windchill Dew Point Humidity Pressure Visibility Wind Dir Wind Speed Gust Speed Precip Events Conditions
12:53 AM 42.1 °F 37.1 °F 23.0 °F 47% 30.21 in 10.0 mi NNW 8.1 mph - N/A   Clear
1:53 AM 41.0 °F 37.1 °F 23.0 °F 49% 30.22 in 10.0 mi NW 5.8 mph - N/A   Clear
2:53 AM 37.9 °F 32.7 °F 23.0 °F 55% 30.21 in 10.0 mi NW 6.9 mph - N/A   Clear
3:53 AM 36.0 °F 31.1 °F 23.0 °F 59% 30.21 in 10.0 mi WNW 5.8 mph - N/A   Clear
4:53 AM 35.1 °F 30.1 °F 23.0 °F 61% 30.21 in 10.0 mi NW 5.8 mph - N/A   Clear
5:53 AM 35.1 °F 29.3 °F 23.0 °F 61% 30.22 in 10.0 mi NW 6.9 mph - N/A   Clear
6:53 AM 37.0 °F 31.6 °F 24.1 °F 59% 30.23 in 10.0 mi NW 6.9 mph - N/A   Clear
7:53 AM 42.1 °F 37.1 °F 23.0 °F 47% 30.24 in 10.0 mi NW 8.1 mph - N/A   Clear
8:53 AM 45.0 °F 38.5 °F 21.9 °F 40% 30.24 in 10.0 mi NW 13.8 mph - N/A   Clear
9:53 AM 46.9 °F - 21.9 °F 37% 30.24 in 10.0 mi North 12.7 mph - N/A   Partly Cloudy
10:53 AM 48.0 °F - 21.0 °F 34% 30.23 in 10.0 mi NW 12.7 mph 23.0 mph N/A   Clear
11:53 AM 50.0 °F - 19.9 °F 31% 30.22 in 10.0 mi NW 15.0 mph 21.9 mph N/A   Clear
12:53 PM 53.1 °F - 19.0 °F 26% 30.19 in 10.0 mi NNW 13.8 mph - N/A   Clear
1:53 PM 54.0 °F - 18.0 °F 24% 30.18 in 10.0 mi NW 8.1 mph - N/A   Clear
2:53 PM 57.0 °F - 19.0 °F 23% 30.16 in 10.0 mi NNW 8.1 mph 16.1 mph N/A   Clear
3:53 PM 57.0 °F - 19.9 °F 24% 30.14 in 10.0 mi WNW 9.2 mph 17.3 mph N/A   Clear
4:53 PM 57.9 °F - 18.0 °F 21% 30.13 in 10.0 mi North 12.7 mph 26.5 mph N/A   Clear
5:53 PM 57.9 °F - 17.1 °F 20% 30.12 in 10.0 mi NNW 16.1 mph 20.7 mph N/A   Clear
6:53 PM 57.0 °F - 16.0 °F 20% 30.11 in 10.0 mi NNW 12.7 mph 24.2 mph N/A   Partly Cloudy
7:53 PM 55.9 °F - 16.0 °F 21% 30.10 in 10.0 mi NNW 9.2 mph - N/A   Partly Cloudy
8:53 PM 53.1 °F - 15.1 °F 22% 30.11 in 10.0 mi WNW 3.5 mph - N/A   Partly Cloudy
9:53 PM 51.1 °F - 17.1 °F 26% 30.12 in 10.0 mi Calm Calm - N/A   Partly Cloudy
10:53 PM 50.0 °F - 19.0 °F 29% 30.12 in 10.0 mi East 5.8 mph - N/A   Clear
11:53 PM 50.0 °F - 18.0 °F 28% 30.12 in 10.0 mi East 3.5 mph - N/A   Partly Cloudy